{"data":{"norad_id":65734,"epoch":"2026-05-24T20:11:13.699392Z","epoch_age_seconds":85184,"freshness":"FRESH","line1":"1 65734U 25216A   26144.84113078  .00018682  00000+0  64119-3 0  9998","line2":"2 65734  53.1594 339.1125 0001009  75.8210 284.2903 15.30205053 38228","mean_motion":15.30205053,"eccentricity":0.0001009,"inclination_deg":53.1594,"raan_deg":339.1125,"arg_perigee_deg":75.821,"mean_anomaly_deg":284.2903,"bstar":0.00064119,"rev_number":3822,"period_min":94.105034954423,"perigee_km":474.50848041216,"apogee_km":475.89148381515,"semimajor_km":6853.3369821137,"source":"CELESTRAK","updated_at":"2026-05-25T13:38:20.899901Z"}}